| time (UTC) | temp C | wind direction | speed KPH | gust KPH | rain 1hr cm | rain 24hr cm | rain mn cm | humidity % | barometer mb |
| 20260508083037 | 2 | 228 | 9.7 | 19.3 | 0.00 | 0.30 | 0.13 | 80 | 1022.1 |
| 20260508081529 | 2 | 275 | 12.9 | 22.5 | 0.00 | 0.30 | 0.13 | 82 | 1022.0 |
| 20260508080033 | 1 | 278 | 22.5 | 29.0 | 0.00 | 0.30 | 0.13 | 82 | 1021.9 |
| 20260508074524 | 3 | 164 | 6.4 | 16.1 | 0.00 | 0.33 | 0.13 | 80 | 1021.6 |
| 20260508073022 | 2 | 220 | 9.7 | 16.1 | 0.00 | 0.33 | 0.13 | 80 | 1021.5 |
| 20260508071520 | 2 | 249 | 8.0 | 14.5 | 0.00 | 0.33 | 0.13 | 81 | 1021.4 |
| 20260508070019 | 2 | 203 | 9.7 | 16.1 | 0.00 | 0.33 | 0.13 | 85 | 1021.3 |
| 20260508064544 | 2 | 178 | 8.0 | 16.1 | 0.03 | 0.33 | 0.13 | 85 | 1021.1 |
| 20260508063016 | 2 | 246 | 11.3 | 19.3 | 0.03 | 0.33 | 0.13 | 85 | 1021.0 |
| 20260508061512 | 2 | 229 | 9.7 | 16.1 | 0.03 | 0.33 | 0.13 | 87 | 1020.9 |
| 20260508060008 | 1 | 240 | 4.8 | 11.3 | 0.05 | 0.33 | 0.13 | 90 | 1020.7 |
| 20260508054506 | 1 | 278 | 0.0 | 3.2 | 0.03 | 0.30 | 0.10 | 91 | 1020.7 |
| 20260508053004 | 0 | 278 | 0.0 | 3.2 | 0.03 | 0.30 | 0.10 | 91 | 1020.5 |
| 20260508051507 | 0 | 190 | 0.0 | 3.2 | 0.03 | 0.30 | 0.10 | 92 | 1020.4 |
| 20260508050002 | 0 | 190 | 1.6 | 3.2 | 0.00 | 0.28 | 0.08 | 91 | 1020.3 |
| 20260508044502 | 0 | 188 | 0.0 | 3.2 | 0.00 | 0.28 | 0.08 | 91 | 1020.3 |
| 20260508043101 | 0 | 217 | 3.2 | 6.4 | 0.03 | 0.28 | 0.08 | 91 | 1020.1 |
| 20260508041559 | 0 | 203 | 1.6 | 6.4 | 0.03 | 0.28 | 0.08 | 91 | 1020.0 |
| 20260508040104 | 0 | 227 | 3.2 | 8.0 | 0.03 | 0.28 | 0.08 | 92 | 1019.8 |
| 20260508034555 | 0 | 238 | 8.0 | 14.5 | 0.03 | 0.30 | 0.08 | 91 | 1019.7 |
| 20260508033057 | 0 | 229 | 9.7 | 20.9 | 0.00 | 0.28 | 0.05 | 91 | 1019.7 |
| 20260508031602 | 0 | 217 | 11.3 | 17.7 | 0.00 | 0.28 | 0.05 | 89 | 1019.6 |
| 20260508030100 | 0 | 239 | 9.7 | 14.5 | 0.03 | 0.28 | 0.05 | 89 | 1019.5 |
| 20260508024548 | 0 | 238 | 8.0 | 12.9 | 0.03 | 0.28 | 0.05 | 90 | 1019.4 |
| 20260508023048 | 0 | 240 | 8.0 | 12.9 | 0.03 | 0.28 | 0.05 | 91 | 1019.3 |
| 20260508021549 | 0 | 262 | 11.3 | 16.1 | 0.03 | 0.28 | 0.05 | 92 | 1019.3 |
| 20260508020049 | 0 | 250 | 8.0 | 12.9 | 0.00 | 0.25 | 0.05 | 92 | 1019.3 |
| 20260508014545 | 0 | 224 | 8.0 | 11.3 | 0.00 | 0.25 | 0.05 | 92 | 1019.1 |
| 20260508013043 | 0 | 254 | 6.4 | 16.1 | 0.00 | 0.25 | 0.05 | 92 | 1019.0 |
| 20260508011546 | 0 | 236 | 14.5 | 22.5 | 0.05 | 0.25 | 0.05 | 92 | 1019.0 |
| 20260508010041 | 0 | 243 | 9.7 | 16.1 | 0.05 | 0.25 | 0.05 | 91 | 1018.9 |
| 20260508004539 | 0 | 194 | 0.0 | 4.8 | 0.05 | 0.25 | 0.05 | 90 | 1018.7 |
| 20260508003032 | 0 | 245 | 3.2 | 4.8 | 0.05 | 0.25 | 0.05 | 89 | 1018.5 |
| 20260508001530 | -17 | 0.0 | 0.0 | 0.00 | 0.23 | 0.00 | 1018.4 | ||
| 20260508000023 | -17 | 0.0 | 0.0 | 0.00 | 0.23 | 0.00 | 1018.4 | ||
| 20260507234529 | -17 | 0.0 | 0.0 | 0.00 | 0.23 | 0.00 | 1018.3 | ||
| 20260507233024 | 1 | 219 | 12.9 | 17.7 | 0.00 | 0.23 | 0.00 | 83 | 1018.0 |
| 20260507231515 | 1 | 232 | 9.7 | 17.7 | 0.00 | 0.23 | 0.00 | 83 | 1017.8 |
| 20260507230013 | 1 | 231 | 8.0 | 12.9 | 0.00 | 0.23 | 0.00 | 82 | 1017.7 |
| 20260507214515 | 1 | 242 | 12.9 | 14.5 | 0.00 | 0.23 | 0.23 | 81 | 1017.2 |
| 20260507213004 | -17 | 0.0 | 0.0 | 0.00 | 0.23 | 0.23 | 1017.1 | ||
| 20260507211609 | -17 | 0.0 | 0.0 | 0.00 | 0.23 | 0.23 | 1017.0 | ||
| 20260507210055 | -17 | 0.0 | 0.0 | 0.00 | 0.23 | 0.23 | 1016.8 | ||
| 20260507204551 | -17 | 0.0 | 0.0 | 0.00 | 0.23 | 0.23 | 1016.6 | ||
| 20260507203051 | -17 | 0.0 | 0.0 | 0.00 | 0.23 | 0.23 | 1016.6 | ||
| 20260507201542 | -17 | 0.0 | 0.0 | 0.00 | 0.23 | 0.23 | 1016.4 | ||
| 20260507200040 | -17 | 0.0 | 0.0 | 0.00 | 0.23 | 0.23 | 1016.4 | ||
| 20260507194536 | -17 | 0.0 | 0.0 | 0.00 | 0.23 | 0.23 | 1016.3 | ||
| 20260507193029 | -17 | 0.0 | 0.0 | 0.00 | 0.23 | 0.23 | 1016.2 | ||
| 20260507191527 | -17 | 0.0 | 0.0 | 0.00 | 0.23 | 0.23 | 1016.1 | ||
| 20260507190023 | -17 | 0.0 | 0.0 | 0.00 | 0.23 | 0.23 | 1016.0 | ||
| 20260507184516 | -17 | 0.0 | 0.0 | 0.00 | 0.23 | 0.23 | 1016.0 | ||
| 20260507183012 | 1 | 51 | 4.8 | 8.0 | 0.00 | 0.23 | 0.23 | 91 | 1015.8 |
| 20260507181508 | 1 | 42 | 4.8 | 6.4 | 0.00 | 0.23 | 0.23 | 91 | 1015.8 |
| 20260507180004 | 1 | 41 | 3.2 | 6.4 | 0.00 | 0.23 | 0.23 | 91 | 1015.7 |
| 20260507174636 | 1 | 36 | 3.2 | 6.4 | 0.00 | 0.23 | 0.23 | 90 | 1015.6 |
| 20260507173056 | 1 | 31 | 3.2 | 6.4 | 0.00 | 0.23 | 0.23 | 89 | 1015.6 |
| 20260507171603 | 1 | 23 | 3.2 | 9.7 | 0.00 | 0.23 | 0.23 | 89 | 1015.5 |
| 20260507170046 | 2 | 54 | 6.4 | 11.3 | 0.00 | 0.23 | 0.23 | 89 | 1015.5 |
| 20260507164541 | 2 | 87 | 6.4 | 14.5 | 0.00 | 0.23 | 0.23 | 89 | 1015.5 |
| 20260507163036 | 2 | 45 | 8.0 | 12.9 | 0.00 | 0.23 | 0.23 | 89 | 1015.3 |
| 20260507161536 | 2 | 27 | 6.4 | 11.3 | 0.00 | 0.23 | 0.23 | 88 | 1015.2 |
| 20260507160031 | 2 | 86 | 1.6 | 4.8 | 0.00 | 0.23 | 0.23 | 87 | 1015.0 |
| 20260507154523 | 2 | 84 | 1.6 | 4.8 | 0.00 | 0.23 | 0.23 | 87 | 1015.1 |
| 20260507153024 | 2 | 150 | 4.8 | 12.9 | 0.00 | 0.23 | 0.23 | 85 | 1014.9 |
| 20260507151515 | 3 | 145 | 4.8 | 9.7 | 0.00 | 0.23 | 0.23 | 86 | 1014.9 |
| 20260507150009 | 3 | 116 | 4.8 | 11.3 | 0.05 | 0.23 | 0.23 | 85 | 1014.9 |
| 20260507144504 | 2 | 304 | 4.8 | 8.0 | 0.05 | 0.23 | 0.23 | 87 | 1014.8 |
| 20260507143119 | 2 | 284 | 6.4 | 16.1 | 0.05 | 0.23 | 0.23 | 89 | 1014.9 |
| 20260507141619 | 1 | 248 | 1.6 | 14.5 | 0.05 | 0.23 | 0.23 | 88 | 1014.9 |
| 20260507140110 | 2 | 234 | 4.8 | 6.4 | 0.00 | 0.15 | 0.15 | 89 | 1014.7 |
| 20260507134547 | 2 | 195 | 4.8 | 9.7 | 0.00 | 0.15 | 0.15 | 90 | 1014.5 |
| 20260507133042 | 2 | 171 | 6.4 | 11.3 | 0.05 | 0.15 | 0.15 | 89 | 1014.5 |
| 20260507131606 | 2 | 252 | 3.2 | 11.3 | 0.08 | 0.15 | 0.15 | 90 | 1014.3 |
| 20260507130034 | 1 | 229 | 6.4 | 12.9 | 0.13 | 0.15 | 0.15 | 90 | 1014.3 |
| 20260507124531 | 1 | 242 | 9.7 | 16.1 | 0.13 | 0.15 | 0.15 | 89 | 1014.2 |
| 20260507123028 | 1 | 257 | 12.9 | 19.3 | 0.08 | 0.13 | 0.13 | 87 | 1014.1 |
| 20260507121518 | 1 | 283 | 17.7 | 24.1 | 0.05 | 0.08 | 0.08 | 86 | 1014.1 |
| 20260507120026 | 3 | 266 | 16.1 | 22.5 | 0.00 | 0.05 | 0.05 | 77 | 1013.8 |
| 20260507114511 | 3 | 222 | 17.7 | 27.4 | 0.00 | 0.05 | 0.05 | 75 | 1013.4 |
| 20260507113012 | 3 | 215 | 19.3 | 30.6 | 0.00 | 0.05 | 0.05 | 76 | 1013.2 |
| 20260507111507 | 3 | 180 | 14.5 | 22.5 | 0.00 | 0.05 | 0.05 | 78 | 1013.0 |
| 20260507110006 | 3 | 200 | 14.5 | 27.4 | 0.00 | 0.05 | 0.05 | 78 | 1013.0 |
| 20260507104505 | 3 | 181 | 17.7 | 30.6 | 0.00 | 0.05 | 0.05 | 78 | 1012.9 |
| 20260507103002 | 3 | 194 | 17.7 | 29.0 | 0.00 | 0.05 | 0.05 | 76 | 1012.8 |
| 20260507101600 | 4 | 211 | 14.5 | 22.5 | 0.00 | 0.05 | 0.05 | 76 | 1012.7 |
| 20260507094611 | 2 | 174 | 8.0 | 24.1 | 0.00 | 0.05 | 0.05 | 80 | 1012.6 |
| 20260507093054 | 2 | 184 | 14.5 | 20.9 | 0.00 | 0.05 | 0.05 | 77 | 1012.5 |
| 20260507091552 | 3 | 219 | 9.7 | 25.7 | 0.00 | 0.05 | 0.05 | 76 | 1012.3 |
| 20260507090049 | 3 | 182 | 11.3 | 22.5 | 0.00 | 0.05 | 0.05 | 78 | 1012.3 |
| 20260507084556 | 2 | 213 | 14.5 | 25.7 | 0.00 | 0.05 | 0.05 | 77 | 1012.3 |